Weather History for Wahoo, NE

Change the Weather History Date:

Wednesday, November 21, 2012

  Actual Average Record
Temperature  
Mean Temperature 53 °F -  
Max Temperature 72 °F 46 °F 72 °F (2012)
Min Temperature 34 °F 23 °F 0 °F (1985)
Degree Days  
Heating Degree Days 12    
Growing Degree Days 3 (Base 50)    
Moisture  
Dew Point 39 °F    
Average Humidity 58    
Maximum Humidity 85    
Minimum Humidity 28    
Precipitation  
Precipitation 0.00 in - - ()
Sea Level Pressure  
Sea Level Pressure 29.97 in    
Wind  
Wind Speed 11 mph (South)    
Max Wind Speed 25 mph    
Max Gust Speed 36 mph    
Visibility 10 miles    
Events      
Averages and records for this station are not official NWS values.
T = Trace of Precipitation, MM = Missing Value Source: NWS Daily Summary

Daily Weather History Graph

Daily Weather History Graph

Search for Another Location

Airport:

Trip Planner

Search our weather history database for the weather conditions in past years. The results will help you decide how hot, cold, wet, or windy it might be!

Date:

Astronomy

Nov. 21, 2012 Rise Set
Actual Time 7:22 AM CST 5:02 PM CST
Civil Twilight 6:52 AM CST 5:32 PM CST
Nautical Twilight 6:18 AM CST 6:06 PM CST
Astronomical Twilight 5:45 AM CST 6:39 PM CST
Moon 1:22 PM CST (11/21) 12:38 AM CST (11/21)
Length of Visible Light 10h 40m
Length of Day
9h 40m
First Quarter, 62% of the Moon is Illuminated
Nov 21
First Quarter
Nov 28
Full
Dec 6
Last Quarter
Dec 13
New
Dec 19
First Quarter

Hourly Weather History & Observations

Time (CST) Temp. Windchill Dew Point Humidity Pressure Visibility Wind Dir Wind Speed Gust Speed Precip Events Conditions
12:15 AM 36.1 °F 32.3 °F 30.7 °F 81% 30.11 in 10.0 mi SSE 4.6 mph - N/A   Clear
12:35 AM 35.1 °F 30.1 °F 30.0 °F 82% 30.10 in 10.0 mi SSE 5.8 mph - N/A   Clear
12:55 AM 36.5 °F 31.8 °F 31.1 °F 81% 30.10 in 10.0 mi South 5.8 mph - N/A   Clear
1:15 AM 35.6 °F 30.7 °F 30.4 °F 81% 30.10 in 10.0 mi SSE 5.8 mph - N/A   Clear
1:35 AM 35.6 °F 30.7 °F 30.7 °F 82% 30.09 in 10.0 mi SSE 5.8 mph - N/A   Clear
1:55 AM 35.6 °F 30.7 °F 31.1 °F 84% 30.09 in 10.0 mi SSE 5.8 mph - N/A   Clear
2:15 AM 34.7 °F 29.6 °F 30.7 °F 85% 30.09 in 10.0 mi South 5.8 mph - N/A   Clear
2:35 AM 35.1 °F 30.1 °F 30.7 °F 84% 30.09 in 10.0 mi SSE 5.8 mph - N/A   Clear
2:55 AM 35.1 °F 31.0 °F 31.1 °F 85% 30.09 in 10.0 mi SSE 4.6 mph - N/A   Clear
3:15 AM 35.6 °F 31.7 °F 31.3 °F 84% 30.08 in 10.0 mi SSE 4.6 mph - N/A   Clear
3:35 AM 37.0 °F 31.6 °F 32.0 °F 82% 30.08 in 10.0 mi SSW 6.9 mph - N/A   Clear
3:55 AM 45.1 °F 40.3 °F 36.5 °F 72% 30.08 in 10.0 mi SSW 9.2 mph - N/A   Clear
4:15 AM 44.4 °F 39.5 °F 36.5 °F 74% 30.08 in 10.0 mi South 9.2 mph - N/A   Clear
4:35 AM 44.1 °F 39.0 °F 36.5 °F 75% 30.08 in 10.0 mi South 9.2 mph - N/A   Clear
4:55 AM 44.1 °F 39.0 °F 36.5 °F 75% 30.07 in 10.0 mi South 9.2 mph - N/A   Clear
5:15 AM 45.7 °F 40.2 °F 36.9 °F 71% 30.07 in 10.0 mi South 11.5 mph - N/A   Clear
5:35 AM 45.7 °F 41.0 °F 36.9 °F 71% 30.07 in 10.0 mi SSW 9.2 mph - N/A   Clear
5:55 AM 44.8 °F 41.0 °F 36.5 °F 73% 30.07 in 10.0 mi South 6.9 mph - N/A   Clear
6:15 AM 43.9 °F 38.8 °F 36.5 °F 75% 30.07 in 10.0 mi SSW 9.2 mph - N/A   Clear
6:35 AM 45.9 °F 40.8 °F 37.2 °F 72% 30.07 in 10.0 mi SSW 10.4 mph - N/A   Clear
6:55 AM 46.0 °F 41.0 °F 37.4 °F 72% 30.06 in 10.0 mi SSW 10.4 mph - N/A   Clear
7:15 AM 45.3 °F 41.1 °F 37.0 °F 73% 30.07 in 10.0 mi SSW 8.1 mph - N/A   Clear
7:35 AM 44.6 °F 40.2 °F 36.7 °F 74% 30.07 in 10.0 mi SSW 8.1 mph - N/A   Clear
7:55 AM 45.7 °F 42.0 °F 37.4 °F 73% 30.07 in 10.0 mi SSW 6.9 mph - N/A   Clear
8:15 AM 47.7 °F - 38.3 °F 70% 30.06 in 10.0 mi SSW 11.5 mph - N/A   Clear
8:35 AM 49.6 °F - 38.8 °F 66% 30.06 in 10.0 mi SSW 12.7 mph - N/A   Clear
8:55 AM 51.6 °F - 39.6 °F 63% 30.06 in 10.0 mi SSW 16.1 mph - N/A   Clear
9:15 AM 53.6 °F - 40.1 °F 60% 30.06 in 10.0 mi SSW 16.1 mph - N/A   Clear
9:35 AM 55.4 °F - 40.6 °F 58% 30.06 in 10.0 mi SSW 16.1 mph 19.6 mph N/A   Clear
9:55 AM 57.4 °F - 41.4 °F 55% 30.06 in 10.0 mi SSW 12.7 mph - N/A   Clear
10:15 AM 59.0 °F - 42.1 °F 53% 30.05 in 10.0 mi SSW 12.7 mph 19.6 mph N/A   Clear
10:35 AM 62.1 °F - 43.2 °F 50% 30.05 in 10.0 mi SSW 10.4 mph 17.3 mph N/A   Clear
10:55 AM 64.0 °F - 43.7 °F 48% 30.04 in 10.0 mi SSW 16.1 mph 23.0 mph N/A   Clear
11:15 AM 65.3 °F - 43.7 °F 46% 30.02 in 10.0 mi SSW 25.3 mph 31.1 mph N/A   Clear
11:35 AM 66.0 °F - 43.7 °F 44% 30.01 in 10.0 mi SSW 20.7 mph 32.2 mph N/A   Clear
11:55 AM 67.6 °F - 43.7 °F 42% 30.00 in 10.0 mi SSW 21.9 mph 27.6 mph N/A   Clear
12:15 PM 68.9 °F - 43.7 °F 40% 29.98 in 10.0 mi SSW 19.6 mph 31.1 mph N/A   Clear
12:35 PM 70.0 °F - 43.2 °F 38% 29.97 in 10.0 mi SSW 20.7 mph 35.7 mph N/A   Clear
12:55 PM 70.7 °F - 43.0 °F 37% 29.96 in 10.0 mi South 25.3 mph 32.2 mph N/A   Clear
1:15 PM 71.6 °F - 42.4 °F 35% 29.95 in 10.0 mi SSW 25.3 mph 32.2 mph N/A   Clear
1:35 PM 72.0 °F - 42.8 °F 35% 29.93 in 10.0 mi South 23.0 mph 32.2 mph N/A   Clear
1:55 PM 71.8 °F - 41.9 °F 34% 29.92 in 10.0 mi South 25.3 mph 31.1 mph N/A   Clear
2:15 PM 72.3 °F - 41.4 °F 33% 29.91 in 10.0 mi SSW 21.9 mph 31.1 mph N/A   Clear
2:35 PM 72.9 °F - 41.2 °F 32% 29.90 in 10.0 mi South 24.2 mph - N/A   Clear
2:55 PM 72.7 °F - 40.3 °F 31% 29.88 in 10.0 mi South 20.7 mph 26.5 mph N/A   Clear
3:15 PM 72.7 °F - 37.6 °F 28% 29.88 in 10.0 mi SSW 21.9 mph 31.1 mph N/A   Clear
3:35 PM 72.5 °F - 38.3 °F 29% 29.88 in 10.0 mi South 24.2 mph 27.6 mph N/A   Clear
3:55 PM 71.6 °F - 39.2 °F 31% 29.87 in 10.0 mi South 20.7 mph - N/A   Clear
4:15 PM 70.7 °F - 38.3 °F 31% 29.86 in 10.0 mi South 19.6 mph 26.5 mph N/A   Clear
4:35 PM 69.8 °F - 37.2 °F 30% 29.86 in 10.0 mi South 21.9 mph 27.6 mph N/A   Clear
4:55 PM 67.6 °F - 36.5 °F 32% 29.86 in 10.0 mi South 18.4 mph 24.2 mph N/A   Clear
5:15 PM 66.9 °F - 37.0 °F 33% 29.86 in 10.0 mi SSW 13.8 mph 21.9 mph N/A   Clear
5:35 PM 64.4 °F - 38.3 °F 38% 29.87 in 10.0 mi South 11.5 mph - N/A   Clear
5:55 PM 63.7 °F - 39.6 °F 41% 29.87 in 10.0 mi South 10.4 mph - N/A   Clear
6:15 PM 60.8 °F - 40.1 °F 46% 29.87 in 10.0 mi South 9.2 mph - N/A   Clear
6:35 PM 59.9 °F - 41.0 °F 50% 29.86 in 10.0 mi South 9.2 mph - N/A   Clear
6:55 PM 59.9 °F - 41.9 °F 51% 29.86 in 10.0 mi South 11.5 mph - N/A   Clear
7:15 PM 59.2 °F - 42.3 °F 53% 29.86 in 10.0 mi SSE 10.4 mph - N/A   Clear
7:35 PM 55.4 °F - 41.5 °F 60% 29.85 in 10.0 mi SSE 8.1 mph - N/A   Clear
7:55 PM 54.7 °F - 42.4 °F 63% 29.85 in 10.0 mi SSE 9.2 mph - N/A   Clear
8:15 PM 57.4 °F - 44.1 °F 61% 29.85 in 10.0 mi South 11.5 mph - N/A   Clear
8:35 PM 58.5 °F - 44.6 °F 60% 29.84 in 10.0 mi South 11.5 mph 17.3 mph N/A   Clear
8:55 PM 60.4 °F - 45.9 °F 59% 29.83 in 10.0 mi South 15.0 mph - N/A   Clear
9:15 PM 60.3 °F - 46.0 °F 59% 29.83 in 10.0 mi South 13.8 mph - N/A   Clear
9:35 PM 60.4 °F - 46.2 °F 59% 29.83 in 10.0 mi South 13.8 mph 19.6 mph N/A   Clear
9:55 PM 61.0 °F - 46.2 °F 58% 29.83 in 10.0 mi South 16.1 mph 23.0 mph N/A   Clear
10:15 PM 61.0 °F - 46.0 °F 58% 29.82 in 10.0 mi South 16.1 mph - N/A   Clear
10:35 PM 61.0 °F - 46.0 °F 58% 29.81 in 10.0 mi South 15.0 mph - N/A   Clear
10:55 PM 60.8 °F - 45.7 °F 57% 29.80 in 10.0 mi South 18.4 mph - N/A   Clear
11:15 PM 60.6 °F - 45.5 °F 57% 29.79 in 10.0 mi South 17.3 mph 21.9 mph N/A   Clear
11:35 PM 60.1 °F - 45.0 °F 57% 29.79 in 10.0 mi South 16.1 mph - N/A   Clear
11:55 PM 59.9 °F - 44.8 °F 57% 29.78 in 10.0 mi South 15.0 mph - N/A   Clear